Portada
METAR-TAF:

METAR-TAF

Aeroports :

Olney-Noble Airport

Olney-Noble, Illinois, Estats Units d'Amèrica

latitud: 38-43-19N, longitud: 088-10-35W, altitud: 147 m

Observació

L'informe es va fer fa 41 minuts, a les 23:30 UTC
Vent 8 kt del Oest
Temperatura 24°C
Humitat 36%
Pressió 1013 hPa
Visibilitat: 16.1 km
Cel clar

METAR: KOLY 172330Z AUTO 28008KT 10SM CLR 24/08 A2992 RMK AO2 T02410084

Hora: 19:11 (00:11 UTC)


TAF: manca

Observacions i pronòstics meteorològics de més de 4000 aeroports (METAR i TAF).

Les estacions disponibles són els punts grocs i vermells al mapa.

Posi el ratolí al punt desitjat per veure el nom de l'estació.

Feu clic per veure les observacions i els pronòstics meteorològics.

Per canviar el mapa: feu clic els botons verds amb una creu de color negre per apropar; al botó verd amb un guió per allunyar la imatge; o en les fletxes verdes per a mapes adjacents.


METAR-TAF: